This is the latest recevied weather packets stored in our database for station/object KD2SIG. If no packets are shown the sender has not sent any weather packets the latest 10 day(s).
| Time | Temp. | Humidity | Pressure | Rain* | Wind** | Luminosity | Snow |
|---|---|---|---|---|---|---|---|
| 1777054321 | 12.78° C | 38% | 1013.5 hPa | 0 mm | - | 708 W/m² | - |
| 1777054021 | 12.22° C | 36% | 1013.4 hPa | 0 mm | - | 700 W/m² | - |
| 1777053715 | 12.22° C | 37% | 1013.5 hPa | 0 mm | - | 701 W/m² | - |
| 1777053415 | 12.22° C | 39% | 1013.7 hPa | 0 mm | - | 686 W/m² | - |
| 1777053110 | 11.67° C | 38% | 1013.9 hPa | 0 mm | - | 672 W/m² | - |
| 1777052807 | 12.78° C | 37% | 1013.9 hPa | 0 mm | - | 675 W/m² | - |
| 1777052506 | 11.67° C | 39% | 1013.8 hPa | 0 mm | - | 688 W/m² | - |
| 1777052203 | 11.67° C | 39% | 1013.9 hPa | 0 mm | - | 712 W/m² | - |
| 1777051899 | 11.11° C | 39% | 1013.8 hPa | 0 mm | - | 709 W/m² | - |
| 1777051596 | 11.67° C | 39% | 1013.8 hPa | 0 mm | - | 704 W/m² | - |
| 1777051293 | 11.67° C | 40% | 1013.8 hPa | 0 mm | - | 712 W/m² | - |
| 1777050988 | 11.67° C | 40% | 1013.6 hPa | 0 mm | - | 693 W/m² | - |
| 1777050684 | 11.67° C | 40% | 1013.9 hPa | 0 mm | - | 694 W/m² | - |
| 1777050379 | 11.11° C | 42% | 1013.7 hPa | 0 mm | - | 689 W/m² | - |
| 1777050075 | 11.11° C | 41% | 1013.9 hPa | 0 mm | - | 700 W/m² | - |
| 1777049774 | 10.56° C | 42% | 1013.6 hPa | 0 mm | - | 700 W/m² | - |
| 1777049470 | 10.56° C | 42% | 1014.1 hPa | 0 mm | - | 686 W/m² | - |
| 1777049169 | 10.56° C | 42% | 1014 hPa | 0 mm | - | 681 W/m² | - |
| 1777048864 | 11.11° C | 43% | 1014 hPa | 0 mm | - | 692 W/m² | - |
| 1777048559 | 10.56° C | 44% | 1014 hPa | 0 mm | - | 704 W/m² | - |
| 1777048258 | 10° C | 44% | 1014 hPa | 0 mm | - | 694 W/m² | - |
| 1777047954 | 10° C | 44% | 1014.1 hPa | 0 mm | - | 672 W/m² | - |
| 1777047650 | 10.56° C | 43% | 1014.3 hPa | 0 mm | - | 648 W/m² | - |
| 1777047345 | 9.44° C | 45% | 1014.2 hPa | 0 mm | - | 646 W/m² | - |
| 1777047042 | 9.44° C | 44% | 1014.3 hPa | 0 mm | - | 651 W/m² | - |
* Rain latest hour (hover to see other rain measurements)
** Current wind speed in m/s (hover to see current wind gust speed)